FENGYUN 1C DEB

Satellite information

Favourite Embed

Satellite Type and Status

DEBRISIN ORBIT

Key statistics

Satellite FENGYUN 1C DEB at a glance.

Uptime

9555

Days in orbit

Revolutions

≈ 14.3

Per day

Orbit

SSO

Sun Synchronous Orbit

Inclination

98.5

Latest

Satellite identification and parameters

Extended collection of information and parameters for FENGYUN 1C DEB.

Object identification

Identified? True

Debris? True

Object name: FENGYUN 1C DEB

International designator: 1999-025CEH

Object number (NORAD): 31734

Object ID (CCSDS): 31734

Country: PEOPLES REPUBLIC OF CHINA (PRC)

Current information (Y/N): Y

RCS size: SMALL

Orbital parameters

Period: 100.799 minutes

Inclination: 98.4839 deg

SMA: 7174.59 km

Apoapsis: 871.928 km

Periapsis: 720.982 km

RAAN: 178.2864 deg

Eccentricy: 0.0105195

Argument of periapsis: 131.5388 deg

Mean anomaly: 229.4875 deg

Mean motion: 14.28588326 rev/day

Mean motion (dot): 0.0000055 rev/day2

B* drag term: 0.00022227 1/REarth

Two-line elements (TLE)

Creation date: July 1, 2025, 2:15 a.m.

Reference frame: TEME

Reference center: EARTH

Epoch: June 30, 2025, 8 p.m. UTC

TLE line 0: 0 FENGYUN 1C DEB

TLE line 1: 1 31734U 99025CEH 25181.83348818 .00000550 00000-0 22227-3 0 9991

TLE line 2: 2 31734 98.4839 178.2864 0105195 131.5388 229.4875 14.28588326940969

Live tracking on map

Real-time ground track for satellite FENGYUN 1C DEB.

In-orbit conjunctions

A list of the most updated potential collisions computed for object FENGYUN 1C DEB.

Target Orbit TCA Probability of collision Miss distance Type
DELTA 1 DEB MEO 2024-10-23 08:04:08 0.000207102 81.0 (m) DEBRIS
THORAD AGENA D DEB LEO 2024-06-24 01:20:05 0.0001407694 281.0 (m) DEBRIS

Associated space launch

Chinese polar orbiting meteorological satellite

FENGYUN 1C DEB was lifted into orbit during the mission ‘Long March 4B | Feng Yun 1C’, on board a Long March 4B space rocket.

The launch took place on May 10, 1999, 1:33 a.m. from Launch Complex 7.

For more information about the launch, click the button.

Launch to space Long March 4B | Feng Yun 1C
Long March 4B | Feng Yun 1C

Agency: N/A

Status: Launch Successful

Launch date: May 10, 1999, 1:33 a.m. UTC

Rocket: Long March 4B

Launch pad: Launch Complex 7

Location: Taiyuan Satellite Launch Center, People's Republic of China

...

Latest news about this satellite

There are no fresh news available about this satellite. Check back as we update our databases every day.


Newsletter sign-up

Weekly statistics, charts and insights to help you stay on top of the space industry.